User: anonymous   Login
Location: Vancouver
(49.2500°N, 123.1330°W)
Time: 21:30:11
(UTC-07:00)
Language:

Transit 2A Rocket - Orbit

View from above orbital plane
View from above orbital plane
View from above satellite
View from above satellite

Ground track
Ground track

The orbit data is extracted from the following two-line orbital elements,

1    47U 60007C   15244.89919639 +.00000088 +00000-0 +45146-4 0  9994
2    47 066.6663 154.6489 0224593 145.3747 216.2219 14.41682499882312
Epoch (UTC): 01 September 2015 21:34:50
Eccentricity: 0.0224593
inclination: 66.6663°
perigee height: 593 km
apogee height: 913 km
right ascension of ascending node: 154.6489°
argument of perigee: 145.3747°
revolutions per day: 14.41682499
mean anomaly at epoch: 216.2219°
orbit number at epoch: 88231

The dashed part of the orbit path shows where the satellite is in the earth's shadow,  

DLR